Weather History for Ogallala, NE

Change the Weather History Date:

Friday, March 22, 2013

  Actual Average Record
Temperature  
Mean Temperature 38 °F -  
Max Temperature 47 °F 53 °F 75 °F (1951)
Min Temperature 28 °F 26 °F 7 °F (2014)
Degree Days  
Heating Degree Days 28    
Moisture  
Dew Point 29 °F    
Average Humidity 72    
Maximum Humidity 94    
Minimum Humidity 43    
Precipitation  
Precipitation 0.01 in - - ()
Sea Level Pressure  
Sea Level Pressure 29.83 in    
Wind  
Wind Speed 9 mph (NNE)    
Max Wind Speed 18 mph    
Max Gust Speed 23 mph    
Visibility 10 miles    
Events Rain , Snow    
Averages and records for this station are not official NWS values.
T = Trace of Precipitation, MM = Missing Value Source: NWS Daily Summary

Daily Weather History Graph

Daily Weather History Graph

Search for Another Location

Airport:

Trip Planner

Search our weather history database for the weather conditions in past years. The results will help you decide how hot, cold, wet, or windy it might be!

Date:

Astronomy

Mar. 22, 2013 Rise Set
Actual Time 6:46 AM MDT 7:01 PM MDT
Civil Twilight 6:19 AM MDT 7:29 PM MDT
Nautical Twilight 5:46 AM MDT 8:01 PM MDT
Astronomical Twilight 5:13 AM MDT 8:34 PM MDT
Moon 2:28 PM MDT (3/22) 3:50 AM MDT (3/22)
Length of Visible Light 13h 10m
Length of Day
12h 15m
Waxing Gibbous, 78% of the Moon is Illuminated
Mar 22
Waxing Gibbous
Mar 27
Full
Apr 2
Last Quarter
Apr 10
New
Apr 18
First Quarter

Hourly Weather History & Observations

Time (MDT) Temp. Windchill Dew Point Humidity Pressure Visibility Wind Dir Wind Speed Gust Speed Precip Events Conditions
12:15 AM 33.4 °F 29.1 °F 30.9 °F 90% 29.81 in 10.0 mi WSW 4.6 mph - N/A   Clear
12:35 AM 32.5 °F 25.5 °F 30.6 °F 92% 29.80 in 10.0 mi West 8.1 mph - N/A   Scattered Clouds
12:55 AM 33.8 °F 27.7 °F 30.0 °F 86% 29.80 in 10.0 mi West 6.9 mph - N/A   Mostly Cloudy
1:15 AM 33.1 °F 26.9 °F 29.3 °F 86% 29.81 in 10.0 mi West 6.9 mph - N/A   Scattered Clouds
1:35 AM 34.2 °F 24.0 °F 28.8 °F 81% 29.81 in 10.0 mi WNW 16.1 mph 19.6 mph N/A   Clear
1:55 AM 34.7 °F 24.3 °F 28.9 °F 79% 29.82 in 10.0 mi WNW 17.3 mph 23.0 mph N/A   Mostly Cloudy
2:15 AM 34.0 °F 25.0 °F 28.4 °F 80% 29.83 in 10.0 mi West 12.7 mph - N/A   Mostly Cloudy
2:35 AM 32.5 °F 24.2 °F 28.2 °F 84% 29.84 in 10.0 mi WNW 10.4 mph - N/A   Scattered Clouds
2:55 AM 33.8 °F 25.8 °F 28.9 °F 82% 29.84 in 10.0 mi WNW 10.4 mph - N/A   Mostly Cloudy
3:15 AM 34.7 °F 26.9 °F 28.9 °F 79% 29.83 in 10.0 mi NW 10.4 mph 13.8 mph N/A   Overcast
3:35 AM 33.8 °F 23.2 °F 28.4 °F 81% 29.82 in 10.0 mi NW 17.3 mph 20.7 mph N/A   Scattered Clouds
3:55 AM 33.1 °F 24.4 °F 28.0 °F 82% 29.81 in 10.0 mi NW 11.5 mph - N/A   Clear
4:15 AM 32.0 °F 24.2 °F 27.7 °F 84% 29.80 in 10.0 mi NW 9.2 mph - N/A   Clear
4:35 AM 32.4 °F 23.0 °F 27.1 °F 81% 29.79 in 10.0 mi NW 12.7 mph - N/A   Clear
4:55 AM 32.4 °F 22.5 °F 27.0 °F 80% 29.79 in 10.0 mi NNW 13.8 mph 20.7 mph N/A   Clear
5:15 AM 32.0 °F 24.8 °F 26.6 °F 80% 29.79 in 10.0 mi NW 8.1 mph - N/A   Clear
5:35 AM 31.1 °F 22.4 °F 26.4 °F 83% 29.79 in 10.0 mi NW 10.4 mph - N/A   Clear
5:55 AM 31.1 °F 23.7 °F 26.2 °F 82% 29.80 in 10.0 mi NW 8.1 mph - N/A   Clear
6:15 AM 31.5 °F 20.9 °F 26.1 °F 80% 29.79 in 10.0 mi NNW 15.0 mph - N/A   Clear
6:35 AM 31.3 °F 22.1 °F 25.7 °F 80% 29.80 in 10.0 mi NW 11.5 mph - N/A   Clear
6:55 AM 29.5 °F 24.5 °F 24.8 °F 83% 29.82 in 10.0 mi WSW 4.6 mph - N/A   Clear
7:15 AM 28.6 °F 20.7 °F 25.2 °F 87% 29.82 in 10.0 mi WSW 8.1 mph - N/A   Clear
7:35 AM 29.5 °F 20.4 °F 25.9 °F 86% 29.82 in 10.0 mi NW 10.4 mph - N/A   Clear
7:55 AM 33.8 °F 22.8 °F 26.4 °F 74% 29.80 in 10.0 mi NNW 18.4 mph - N/A   Clear
8:15 AM 34.0 °F 23.8 °F 26.6 °F 74% 29.82 in 10.0 mi NNW 16.1 mph - N/A   Clear
8:35 AM 33.8 °F 24.3 °F 27.1 °F 77% 29.83 in 10.0 mi NNW 13.8 mph 19.6 mph N/A   Clear
8:55 AM 34.5 °F 25.7 °F 27.9 °F 77% 29.83 in 10.0 mi NW 12.7 mph - N/A   Clear
9:15 AM 35.6 °F 27.1 °F 28.2 °F 75% 29.84 in 10.0 mi NNW 12.7 mph - N/A   Clear
9:35 AM 36.5 °F 29.7 °F 28.4 °F 72% 29.84 in 10.0 mi NNW 9.2 mph - N/A   Clear
9:55 AM 37.4 °F 30.8 °F 28.9 °F 71% 29.85 in 10.0 mi NW 9.2 mph - N/A   Clear
10:15 AM 38.7 °F 35.2 °F 29.5 °F 70% 29.85 in 10.0 mi North 4.6 mph - N/A   Clear
10:35 AM 39.9 °F 37.8 °F 29.1 °F 65% 29.85 in 10.0 mi NW 3.5 mph - N/A   Scattered Clouds
10:55 AM 40.6 °F 36.0 °F 28.9 °F 63% 29.85 in 10.0 mi North 6.9 mph - N/A   Mostly Cloudy
11:15 AM 41.0 °F 38.0 °F 27.9 °F 60% 29.85 in 10.0 mi ENE 4.6 mph - N/A   Overcast
11:35 AM 42.4 °F 38.1 °F 27.1 °F 55% 29.85 in 10.0 mi East 6.9 mph - N/A   Mostly Cloudy
11:55 AM 41.4 °F - 28.0 °F 59% 29.85 in 10.0 mi Calm Calm - N/A   Overcast
12:15 PM 43.3 °F 39.9 °F 28.6 °F 56% 29.84 in 10.0 mi East 5.8 mph - N/A   Overcast
12:35 PM 43.0 °F 41.3 °F 26.6 °F 52% 29.83 in 10.0 mi East 3.5 mph - N/A   Overcast
12:55 PM 45.3 °F 40.6 °F 29.3 °F 54% 29.83 in 10.0 mi East 9.2 mph - N/A   Mostly Cloudy
1:15 PM 43.0 °F 39.5 °F 29.1 °F 58% 29.83 in 10.0 mi ESE 5.8 mph - N/A   Overcast
1:35 PM 43.9 °F 40.5 °F 28.2 °F 54% 29.81 in 10.0 mi East 5.8 mph - N/A   Overcast
2:15 PM 45.7 °F - 28.0 °F 50% 29.79 in 10.0 mi Calm Calm - N/A   Clear
2:35 PM 46.0 °F 40.2 °F 28.2 °F 50% 29.78 in 10.0 mi ENE 12.7 mph - N/A   Mostly Cloudy
2:55 PM 44.8 °F 41.0 °F 27.7 °F 51% 29.78 in 10.0 mi East 6.9 mph - N/A   Overcast
3:15 PM 45.7 °F 42.0 °F 27.3 °F 49% 29.78 in 10.0 mi ENE 6.9 mph - N/A   Mostly Cloudy
3:35 PM 46.6 °F - 25.7 °F 44% 29.78 in 10.0 mi Calm Calm - N/A   Scattered Clouds
3:55 PM 47.1 °F - 26.6 °F 45% 29.78 in 10.0 mi East 5.8 mph - N/A   Clear
4:15 PM 45.5 °F 44.2 °F 25.5 °F 46% 29.78 in 10.0 mi SSE 3.5 mph - N/A   Mostly Cloudy
4:35 PM 45.9 °F - 24.8 °F 44% 29.78 in 10.0 mi Calm Calm - N/A   Overcast
4:55 PM 46.4 °F 44.3 °F 25.0 °F 43% 29.79 in 10.0 mi East 4.6 mph - N/A   Overcast
5:15 PM 45.9 °F 42.3 °F 25.7 °F 45% 29.79 in 10.0 mi East 6.9 mph - N/A   Overcast
5:35 PM 45.7 °F 41.5 °F 25.5 °F 45% 29.79 in 10.0 mi NE 8.1 mph - N/A   Mostly Cloudy
5:55 PM 45.5 °F 40.8 °F 25.9 °F 46% 29.79 in 10.0 mi East 9.2 mph - N/A   Mostly Cloudy
6:15 PM 45.0 °F 43.5 °F 26.1 °F 48% 29.80 in 10.0 mi East 3.5 mph - N/A   Overcast
6:35 PM 41.4 °F 34.0 °F 30.9 °F 66% 29.81 in 10.0 mi NW 13.8 mph 19.6 mph N/A Rain Rain
6:55 PM 39.2 °F 33.6 °F 30.9 °F 72% 29.81 in 7.0 mi SE 8.1 mph 16.1 mph N/A Rain Light Rain
7:15 PM 39.2 °F 37.0 °F 31.8 °F 75% 29.83 in 10.0 mi ESE 3.5 mph - N/A   Overcast
7:35 PM 39.4 °F 37.2 °F 31.8 °F 74% 29.83 in 10.0 mi ESE 3.5 mph - N/A   Overcast
7:55 PM 39.7 °F 36.5 °F 31.6 °F 73% 29.85 in 10.0 mi ESE 4.6 mph - N/A   Overcast
8:15 PM 39.6 °F - 31.8 °F 74% 29.85 in 10.0 mi Calm Calm - N/A   Overcast
8:35 PM 39.7 °F 36.5 °F 31.8 °F 73% 29.87 in 10.0 mi East 4.6 mph - N/A   Light Drizzle
8:55 PM 36.0 °F 27.1 °F 32.0 °F 86% 29.88 in 4.0 mi East 13.8 mph 20.7 mph N/A Snow Light Snow
9:15 PM 34.9 °F 27.1 °F 32.4 °F 91% 29.89 in 5.0 mi East 10.4 mph - 0.01 in Snow Light Snow
9:35 PM 34.7 °F 28.8 °F 32.4 °F 91% 29.90 in 5.0 mi East 6.9 mph - 0.01 in Snow Light Snow
9:55 PM 34.3 °F 31.4 °F 32.5 °F 93% 29.91 in 7.0 mi East 3.5 mph - 0.01 in   Overcast
10:35 PM 34.2 °F 30.0 °F 32.4 °F 93% 29.91 in 5.0 mi SSE 4.6 mph - N/A Snow Light Snow
10:55 PM 33.8 °F 26.4 °F 32.2 °F 94% 29.90 in 7.0 mi SSE 9.2 mph - N/A   Overcast
11:15 PM 33.8 °F 27.7 °F 32.0 °F 93% 29.90 in 10.0 mi SSE 6.9 mph - N/A   Overcast
11:35 PM 33.8 °F 29.6 °F 32.0 °F 93% 29.89 in 10.0 mi SSE 4.6 mph - N/A   Overcast
11:55 PM 33.8 °F 29.6 °F 32.0 °F 93% 29.90 in 10.0 mi SE 4.6 mph - N/A   Overcast